Regional Weather Roundup
Issued by NWS

Home | Current Version | Previous Version | Text Only | Print | Product List | Glossary On
Versions: 1 2 3 4 5 6 7 8 9 10 11 12 13 14 15 16 17 18 19 20 21 22 23 24 25 26 27 28 29 30 31 32 33 34 35 36 37 38 39 40 41 42 43 44 45 46 47 48 49 50
549
ASUS45 KREV 122210
RWRNV
NEVADA REGIONAL WEATHER ROUNDUP
NATIONAL WEATHER SERVICE RENO NV
200 PM PST FRI FEB 12 2016

NOTE: "FAIR" INDICATES FEW OR NO CLOUDS BELOW 12,000 FEET WITH NO
SIGNIFICANT WEATHER AND/OR OBSTRUCTIONS TO VISIBILITY.

NVZ001-003-004-122300-
WESTERN NEVADA

CITY           SKY/WX    TMP DP  RH WIND       PRES   REMARKS
RENO           PTSUNNY   61  29  29 CALM      30.22F
CARSON CITY    FAIR      64  25  22 NE7       30.23F
MINDEN         FAIR      63  23  22 CALM      30.23F
SLIDE MTN        N/A     41  18  38 W22         N/A
PYRAMID LAKE     N/A     46 N/A N/A N6          N/A
FALLON         CLOUDY    59  34  39 S5        30.22F
LOVELOCK       MOSUNNY   56  37  49 NW5       30.23F
HAWTHORNE      SUNNY     61  30  31 CALM      30.24F
$$

NVZ002-CAZ072-073-122300-
NORTHERN AND CENTRAL SIERRA

CITY           SKY/WX    TMP DP  RH WIND       PRES   REMARKS
S. LAKE TAHOE  MOSUNNY   50  30  46 N8        30.28F
TRUCKEE        PTSUNNY   59  21  23 W7        30.28F
SQUAW VLY 8000   N/A     46  18  31 W7          N/A
SUSANVILLE     SUNNY     61  37  41 NE5       30.22F
BLUE CANYON    MOSUNNY   57  24  28 S9        30.29F
MAMMOTH LAKES  FAIR      57  10  15 E5        30.32F
BRIDGEPORT     FAIR      61   3  10 SW12G21   30.27F
$$

NVZ030-031-036-122300-
NORTHERN NEVADA

CITY           SKY/WX    TMP DP  RH WIND       PRES   REMARKS
ELKO           MOSUNNY   36  22  56 SE5       30.32F
WINNEMUCCA     MOSUNNY   56  34  43 NE6       30.24F
WENDOVER       CLOUDY    30  27  86 S6        30.37F
$$

NVZ035-037-122300-
CENTRAL NEVADA

CITY           SKY/WX    TMP DP  RH WIND       PRES   REMARKS
ELY            PTSUNNY   44  25  47 CALM      30.30F
EUREKA           N/A     37  25  61 CALM      30.30F
$$

NVZ013-014-122300-
SOUTH CENTRAL NEVADA

CITY           SKY/WX    TMP DP  RH WIND       PRES   REMARKS
TONOPAH        MOSUNNY   56  31  38 VRB5      30.28F
$$

NVZ017-020-022-122300-
SOUTHERN NEVADA

CITY           SKY/WX    TMP DP  RH WIND       PRES   REMARKS
LAS VEGAS      MOSUNNY   72  22  15 CALM      30.13F
N. LAS VEGAS   SUNNY     71  23  16 SE5       30.16F
NELLIS AFB     SUNNY     73  29  19 VRB1      30.15F
HENDERSON      SUNNY     71  24  17 N6        30.19F
MERCURY        MOSUNNY   72  21  14 W5        30.18F
$$




USA.gov is the U.S. government's official web portal to all federal, state and local government web resources and services.